Weather History for Newport, AR

Change the Weather History Date:

Saturday, May 18, 2013

  Actual Average (KJBR) Record (KJBR)
Temperature  
Mean Temperature 74 °F 70 °F  
Max Temperature 82 °F 81 °F 97 °F (1911)
Min Temperature 65 °F 59 °F 43 °F (2011)
Degree Days  
Heating Degree Days 0 1  
Month to date heating degree days 30  
Since 1 July heating degree days 3645  
Cooling Degree Days 8 6  
Month to date cooling degree days 69  
Year to date cooling degree days 116  
Growing Degree Days 24 (Base 50)    
Moisture  
Dew Point 71 °F    
Average Humidity 89    
Maximum Humidity 100    
Minimum Humidity 70    
Precipitation  
Precipitation 0.00 in 0.14 in 2.12 in (1983)
Month to date precipitation 3.10  
Year to date precipitation 19.77  
Snow  
Snow 0.00 in 0.00 in - ()
Month to date snowfall 0.0  
Since 1 July snowfall 4.8  
Snow Depth -    
Sea Level Pressure  
Sea Level Pressure 29.94 in    
Wind  
Wind Speed 5 mph (SE)    
Max Wind Speed 15 mph    
Max Gust Speed -    
Visibility 8 miles    
Events Rain    
T = Trace of Precipitation, MM = Missing Value Source: NWS Daily Summary

Daily Weather History Graph

Daily Weather History Graph

Search for Another Location

Airport:

Trip Planner

Search our weather history database for the weather conditions in past years. The results will help you decide how hot, cold, wet, or windy it might be!

Date:

Astronomy

May. 18, 2013 Rise Set
Actual Time 5:57 AM CDT 8:05 PM CDT
Civil Twilight 5:28 AM CDT 8:34 PM CDT
Nautical Twilight 4:53 AM CDT 9:09 PM CDT
Astronomical Twilight 4:16 AM CDT 9:46 PM CDT
Moon 1:22 PM CDT (5/18) 1:35 AM CDT (5/18)
Length of Visible Light 15h 05m
Length of Day
14h 08m
First Quarter, 55% of the Moon is Illuminated
May 18
First Quarter
May 24
Full
May 31
Last Quarter
Jun 8
New
Jun 16
First Quarter

Hourly Weather History & Observations

Time (CDT) Temp. Heat Index Dew Point Humidity Pressure Visibility Wind Dir Wind Speed Gust Speed Precip Events Conditions
12:56 AM 68.0 °F - 68.0 °F 100% 29.95 in 10.0 mi Calm Calm - N/A   Clear
1:56 AM 66.9 °F - 66.9 °F 100% 29.94 in 10.0 mi NE 4.6 mph - N/A   Mostly Cloudy
2:56 AM 66.9 °F - 66.9 °F 100% 29.94 in 10.0 mi East 4.6 mph - N/A   Mostly Cloudy
3:56 AM 65.8 °F - 65.8 °F 100% 29.93 in 7.0 mi Calm Calm - N/A   Clear
4:56 AM 65.8 °F - 65.8 °F 100% 29.94 in 6.0 mi East 5.8 mph - N/A   Clear
5:33 AM 66.2 °F - 66.2 °F 100% 29.95 in 6.0 mi SE 3.5 mph - N/A   Mostly Cloudy
5:56 AM 66.9 °F - 66.9 °F 100% 29.95 in 6.0 mi East 4.6 mph - N/A   Overcast
6:18 AM 66.2 °F - 66.2 °F 100% 29.96 in 6.0 mi ENE 4.6 mph - N/A   Overcast
6:56 AM 66.9 °F - 66.9 °F 100% 29.98 in 7.0 mi Calm Calm - N/A   Overcast
7:28 AM 69.8 °F - 69.8 °F 100% 29.99 in 10.0 mi East 4.6 mph - N/A   Overcast
7:56 AM 70.0 °F - 68.9 °F 96% 29.99 in 10.0 mi East 4.6 mph - N/A   Mostly Cloudy
8:03 AM 69.8 °F - 69.8 °F 100% 30.00 in 10.0 mi East 4.6 mph - N/A   Mostly Cloudy
8:56 AM 70.9 °F - 68.9 °F 93% 30.01 in 10.0 mi East 5.8 mph - N/A   Overcast
9:56 AM 72.9 °F - 68.9 °F 87% 30.00 in 10.0 mi East 6.9 mph - N/A   Overcast
10:56 AM 75.9 °F - 70.9 °F 84% 29.98 in 10.0 mi East 10.4 mph - N/A   Overcast
11:56 AM 79.9 °F - 72.9 °F 79% 29.97 in 10.0 mi ESE 8.1 mph - N/A   Scattered Clouds
12:27 PM 80.6 °F 85.4 °F 73.4 °F 79% 29.96 in 10.0 mi SE 6.9 mph - N/A   Mostly Cloudy
12:56 PM 81.0 °F 85.6 °F 72.9 °F 76% 29.95 in 10.0 mi SE 9.2 mph - N/A   Overcast
1:56 PM 81.9 °F 87.7 °F 73.9 °F 77% 29.94 in 9.0 mi SSE 10.4 mph - N/A   Overcast
2:32 PM 80.6 °F 86.2 °F 75.2 °F 84% 29.95 in 6.0 mi South 10.4 mph - 0.00 in Rain Light Rain
2:41 PM 80.6 °F 86.2 °F 75.2 °F 84% 29.95 in 6.0 mi South 11.5 mph - 0.00 in   Haze
2:56 PM 81.9 °F 88.2 °F 74.8 °F 79% 29.94 in 5.0 mi SSW 12.7 mph - 0.00 in   Haze
3:05 PM 82.4 °F 88.2 °F 73.4 °F 74% 29.94 in 5.0 mi SW 15.0 mph - N/A   Haze
3:56 PM 81.9 °F 87.0 °F 72.9 °F 74% 29.92 in 5.0 mi SSW 9.2 mph - N/A   Haze
4:56 PM 81.9 °F 86.6 °F 72.0 °F 72% 29.91 in 6.0 mi South 9.2 mph - N/A   Haze
5:18 PM 82.4 °F 87.2 °F 71.6 °F 70% 29.92 in 7.0 mi South 10.4 mph - N/A   Mostly Cloudy
5:56 PM 81.0 °F 84.7 °F 70.9 °F 71% 29.91 in 7.0 mi SSW 10.4 mph - N/A   Overcast
6:56 PM 81.0 °F 85.2 °F 72.0 °F 74% 29.91 in 6.0 mi South 6.9 mph - N/A   Haze
7:56 PM 77.9 °F - 72.9 °F 84% 29.91 in 6.0 mi Calm Calm - N/A   Haze
8:56 PM 75.9 °F - 74.8 °F 96% 29.90 in 6.0 mi East 5.8 mph - 0.00 in Rain Light Rain
9:56 PM 74.8 °F - 73.9 °F 97% 29.91 in 6.0 mi SE 4.6 mph - 0.00 in   Scattered Clouds
10:56 PM 74.8 °F - 73.9 °F 97% 29.89 in 6.0 mi SE 6.9 mph - N/A   Partly Cloudy
11:56 PM 74.8 °F - 74.8 °F 100% 29.89 in 7.0 mi SSE 4.6 mph - N/A   Overcast